Location: Mainz-Finthen
(49.9906°N, 8.1713°E)
Time: 07:11:08
(UTC+00:00)

N. Korean satellite - Pass Details

Date: 29 November 2022
Orbit: 407 x 442 km, 97.3° (Epoch: 04 February)

Event Time Altitude Azimuth Distance (km) Brightness Sun altitude
Rises 05:09:33 0° 10° (N) 2,532 10.2 -17.2°
Reaches altitude 10° 05:11:38 10° 6° (N) 1,649 9.2 -16.9°
Maximum altitude 05:15:08 60° 287° (WNW) 544 6.4 -16.3°
Drops below altitude 10° 05:18:35 10° 206° (SSW) 1,624 9.1 -15.8°
Sets 05:20:37 0° 203° (SSW) 2,488 10.1 -15.5°
